Location: Bremen
(53.0793°N, 8.8017°E)
Time: 01:30:20
(UTC+01:00)

deb Explorer IX - Pass Details

Date: 13 December 2021
Orbit: 544 x 1082 km, 38.8° (Epoch: 16 January)

Event Time Altitude Azimuth Distance (km) Brightness Sun altitude
Rises 10:49:51 0° 252° (WSW) 3,269 ? 11.3°
Reaches altitude 10° 10:54:33 10° 216° (SW) 2,174 ? 11.6°
Maximum altitude 10:55:42 11° 203° (SSW) 2,084 ? 11.6°
Drops below altitude 10° 10:56:50 10° 189° (S) 2,097 ? 11.7°
Sets 11:01:01 0° 152° (SSE) 2,875 ? 11.9°
